Mojave, CA

5:29 PM PST on December 06, 2019 (GMT -0800)
Mojave

Weather History for KMHV - October, 2019

Change the Weather History Date:

Sunday, October 27, 2019

  Actual Average Record
Temperature  
Mean Temperature 59 °F -  
Max Temperature 68 °F 75 °F 89 °F (1990)
Min Temperature 50 °F 46 °F 32 °F (1970)
Degree Days  
Heating Degree Days 6    
Growing Degree Days 9 (Base 50)    
Moisture  
Dew Point 19 °F    
Average Humidity 21    
Maximum Humidity 32    
Minimum Humidity 13    
Precipitation  
Precipitation 0.00 in - - ()
Sea Level Pressure  
Sea Level Pressure 29.81 in    
Wind  
Wind Speed 14 mph ()    
Max Wind Speed 37 mph    
Max Gust Speed 44 mph    
Visibility 9.6 miles    
Events      
Averages and records for this station are not official NWS values.
T = Trace of Precipitation, MM = Missing Value Source: Averaged Metar Reports

Daily Weather History Graph

Daily Weather History Graph

Search for Another Location

Airport or City:

Astronomy

Oct. 27, 2019 Rise Set
Actual Time 7:08 AM PDT 6:03 PM PDT
Civil Twilight 6:42 AM PDT 6:29 PM PDT
Nautical Twilight 6:13 AM PDT 6:59 PM PDT
Astronomical Twilight 5:43 AM PDT 7:28 PM PDT
Moon 6:27 AM PDT (10/27) 6:13 PM PDT (10/27)
Length of Visible Light 11h 46m
Length of Day
10h 54m
Waning Crescent, 0% of the Moon is Illuminated
Oct 27
Waning Crescent
Oct 27
New
Nov 4
First Quarter
Nov 12
Full
Nov 19
Last Quarter

Hourly Weather History & Observations

Time (PDT) Temp. Dew Point Humidity Pressure Visibility Wind Dir Wind Speed Gust Speed Precip Events Conditions
12:00 AM 66.2 °F 24.8 °F 21% 29.78 in 10.0 mi West 12.7 mph - N/A   Overcast
12:20 AM 68.0 °F 24.8 °F 20% 29.77 in 10.0 mi West 12.7 mph 21.9 mph N/A   Overcast
12:40 AM 68.0 °F 24.8 °F 20% 29.76 in 10.0 mi West 18.4 mph - N/A   Overcast
1:00 AM 68.0 °F 24.8 °F 20% 29.76 in 10.0 mi WSW 18.4 mph - N/A   Overcast
1:20 AM 68.0 °F 26.6 °F 21% 29.75 in 10.0 mi WSW 18.4 mph - N/A   Overcast
1:40 AM 66.2 °F 24.8 °F 21% 29.75 in 10.0 mi West 12.7 mph 20.7 mph N/A   Overcast
2:00 AM 68.0 °F 24.8 °F 20% 29.75 in 10.0 mi West 12.7 mph 20.7 mph N/A   Overcast
2:20 AM 66.2 °F 26.6 °F 23% 29.75 in 10.0 mi WSW 10.4 mph - N/A   Overcast
2:40 AM 62.6 °F 24.8 °F 24% 29.74 in 10.0 mi WSW 6.9 mph - N/A   Overcast
3:00 AM 64.4 °F 26.6 °F 24% 29.74 in 10.0 mi SW 11.5 mph - N/A   Overcast
3:20 AM 60.8 °F 24.8 °F 25% 29.73 in 10.0 mi SSW 6.9 mph 15.0 mph N/A   Overcast
3:40 AM 60.8 °F 24.8 °F 25% 29.73 in 10.0 mi SSW 6.9 mph - N/A   Overcast
4:00 AM 60.8 °F 24.8 °F 25% 29.72 in 10.0 mi South 9.2 mph - N/A   Overcast
4:20 AM 59.0 °F 24.8 °F 27% 29.71 in 10.0 mi SSW 9.2 mph - N/A   Overcast
4:40 AM 59.0 °F 24.8 °F 27% 29.71 in 10.0 mi South 8.1 mph - N/A   Overcast
5:00 AM 60.8 °F 24.8 °F 25% 29.71 in 10.0 mi South 6.9 mph - N/A   Overcast
5:20 AM 57.2 °F 23.0 °F 27% 29.71 in 10.0 mi SW 8.1 mph - N/A   Overcast
5:40 AM 57.2 °F 23.0 °F 27% 29.71 in 10.0 mi SW 6.9 mph - N/A   Overcast
6:00 AM 57.2 °F 24.8 °F 29% 29.71 in 10.0 mi SW 6.9 mph - N/A   Mostly Cloudy
6:20 AM 55.4 °F 24.8 °F 31% 29.71 in 10.0 mi SSW 8.1 mph - N/A   Overcast
6:40 AM 55.4 °F 24.8 °F 31% 29.71 in 10.0 mi SW 9.2 mph - N/A   Overcast
7:00 AM 57.2 °F 26.6 °F 31% 29.72 in 10.0 mi SW 9.2 mph - N/A   Scattered Clouds
7:20 AM 59.0 °F 26.6 °F 29% 29.72 in 10.0 mi SSW 8.1 mph - N/A   Clear
7:40 AM 59.0 °F 23.0 °F 25% 29.73 in 10.0 mi SW 8.1 mph - N/A   Clear
8:00 AM 62.6 °F 30.2 °F 30% 29.75 in 10.0 mi West 17.3 mph 26.5 mph N/A   Clear
8:20 AM 62.6 °F 30.2 °F 30% 29.76 in 10.0 mi WNW 13.8 mph - N/A   Clear
8:40 AM 64.4 °F 30.2 °F 28% 29.77 in 10.0 mi West 11.5 mph 19.6 mph N/A   Clear
9:00 AM 64.4 °F 32.0 °F 30% 29.76 in 10.0 mi WNW 17.3 mph 23.0 mph N/A   Clear
9:20 AM 64.4 °F 33.8 °F 32% 29.77 in 9.0 mi WNW 17.3 mph 25.3 mph N/A   Clear
9:40 AM 66.2 °F 33.8 °F 30% 29.77 in 9.0 mi West 12.7 mph 19.6 mph N/A   Clear
10:00 AM 66.2 °F 33.8 °F 30% 29.78 in 9.0 mi West 6.9 mph 13.8 mph N/A   Clear
10:20 AM 68.0 °F 33.8 °F 28% 29.79 in 9.0 mi Variable 4.6 mph - N/A   Clear
10:40 AM 68.0 °F 19.4 °F 16% 29.79 in 9.0 mi ENE 17.3 mph 24.2 mph N/A   Clear
11:00 AM 66.2 °F 17.6 °F 15% 29.80 in 9.0 mi NE 19.6 mph - N/A   Clear
11:20 AM 66.2 °F 17.6 °F 15% 29.80 in 8.0 mi NE 17.3 mph - N/A   Clear
11:40 AM 68.0 °F 15.8 °F 13% 29.81 in 8.0 mi NE 20.7 mph - N/A   Clear
12:00 PM 68.0 °F 15.8 °F 13% 29.81 in 8.0 mi NE 19.6 mph - N/A   Clear
12:20 PM 66.2 °F 15.8 °F 14% 29.81 in 8.0 mi NNE 17.3 mph 24.2 mph N/A   Clear
12:40 PM 66.2 °F 15.8 °F 14% 29.81 in 8.0 mi ENE 15.0 mph 25.3 mph N/A   Clear
1:00 PM 66.2 °F 14.0 °F 13% 29.80 in 9.0 mi NE 18.4 mph - N/A   Clear
1:20 PM 66.2 °F 15.8 °F 14% 29.80 in 8.0 mi NE 20.7 mph - N/A   Clear
1:40 PM 66.2 °F 15.8 °F 14% 29.80 in 8.0 mi NE 20.7 mph - N/A   Clear
2:00 PM 66.2 °F 15.8 °F 14% 29.79 in 9.0 mi NE 15.0 mph 23.0 mph N/A   Clear
2:20 PM 66.2 °F 15.8 °F 14% 29.79 in 9.0 mi ENE 16.1 mph - N/A   Clear
2:40 PM 66.2 °F 15.8 °F 14% 29.79 in 9.0 mi NE 17.3 mph - N/A   Clear
3:00 PM 66.2 °F 15.8 °F 14% 29.79 in 9.0 mi ENE 16.1 mph 23.0 mph N/A   Clear
3:20 PM 66.2 °F 14.0 °F 13% 29.79 in 9.0 mi ENE 18.4 mph 26.5 mph N/A   Clear
3:40 PM 64.4 °F 14.0 °F 14% 29.79 in 9.0 mi NE 18.4 mph 28.8 mph N/A   Clear
4:00 PM 64.4 °F 14.0 °F 14% 29.79 in 10.0 mi NE 19.6 mph - N/A   Clear
4:20 PM 64.4 °F 12.2 °F 13% 29.80 in 9.0 mi NE 18.4 mph 26.5 mph N/A   Clear
4:40 PM 62.6 °F 12.2 °F 14% 29.81 in 10.0 mi NNE 20.7 mph 28.8 mph N/A   Partly Cloudy
5:00 PM 62.6 °F 12.2 °F 14% 29.82 in 10.0 mi NNE 26.5 mph - N/A   Mostly Cloudy
5:20 PM 60.8 °F 12.2 °F 15% 29.83 in 10.0 mi NNE 25.3 mph - N/A   Overcast
5:40 PM 59.0 °F 12.2 °F 16% 29.85 in 9.0 mi NNE 24.2 mph 32.2 mph N/A   Overcast
6:00 PM 57.2 °F 12.2 °F 17% 29.86 in 9.0 mi NNE 24.2 mph - N/A   Overcast
6:20 PM 57.2 °F 10.4 °F 16% 29.88 in 10.0 mi NNE 20.7 mph 32.2 mph N/A   Overcast
6:40 PM 55.4 °F 10.4 °F 17% 29.90 in 10.0 mi NNE 20.7 mph 31.1 mph N/A   Overcast
7:00 PM 55.4 °F 12.2 °F 18% 29.92 in 10.0 mi NNE 18.4 mph 24.2 mph N/A   Overcast
7:20 PM 55.4 °F 14.0 °F 20% 29.92 in 10.0 mi NNE 20.7 mph - N/A   Overcast
7:40 PM 55.4 °F 14.0 °F 20% 29.92 in 10.0 mi NE 19.6 mph 28.8 mph N/A   Overcast
8:00 PM 53.6 °F 14.0 °F 21% 29.93 in 10.0 mi NE 17.3 mph - N/A   Mostly Cloudy
8:20 PM 53.6 °F 14.0 °F 21% 29.94 in 10.0 mi NE 24.2 mph - N/A   Mostly Cloudy
8:40 PM 51.8 °F 14.0 °F 22% 29.95 in 10.0 mi NE 21.9 mph - N/A   Mostly Cloudy
9:00 PM 51.8 °F 12.2 °F 21% 29.95 in 10.0 mi NNE 21.9 mph - N/A   Mostly Cloudy
9:20 PM 51.8 °F 10.4 °F 19% 29.97 in 10.0 mi NE 20.7 mph 27.6 mph N/A   Overcast
9:40 PM 51.8 °F 8.6 °F 18% 29.97 in 10.0 mi NE 23.0 mph 31.1 mph N/A   Overcast
10:00 PM 51.8 °F 8.6 °F 18% 29.98 in 10.0 mi NE 21.9 mph 27.6 mph N/A   Overcast
10:20 PM 51.8 °F 8.6 °F 18% 29.96 in 10.0 mi NNE 31.1 mph 38.0 mph N/A   Overcast
10:40 PM 51.8 °F 8.6 °F 18% 29.97 in 10.0 mi NNE 33.4 mph 40.3 mph N/A   Overcast
11:00 PM 51.8 °F 8.6 °F 18% 29.96 in 10.0 mi NNE 32.2 mph 42.6 mph N/A   Overcast
11:20 PM 50.0 °F 8.6 °F 19% 29.97 in 10.0 mi NNE 36.8 mph 42.6 mph N/A   Overcast
11:40 PM 50.0 °F 8.6 °F 19% 29.97 in 10.0 mi North 34.5 mph 43.7 mph N/A   Overcast